Other Public Products
Issued by NWS Grand Forks, ND

Home | Current Version | Previous Version | Text Only | Print | Product List | Glossary On
Versions: 1 2 3 4 5 6 7 8 9 10 11 12 13 14 15 16 17 18 19 20 21 22 23 24 25 26 27 28 29 30 31 32 33 34 35 36 37 38 39 40 41 42 43 44 45 46 47 48 49 50
000
FPUS83 KFGF 032131
OPUFGF
PRAIRIE TO PINES WEATHER ROUNDUP
NATIONAL WEATHER SERVICE EASTERN NORTH DAKOTA/GRAND FORKS ND
400 PM CDT TUE MAY 03 2016

 **SATELLITE DATA USED TO AUGMENT SKY COVER AT AUTOMATED STATIONS**
 *****  WEATHER ACROSS EASTERN NORTH DAKOTA  *****

CITY           SKY/WX    TMP DP  RH WIND       PRES   REMARKS
GRAND FORKS    SUNNY     67  31  26 N29G38    29.89S
GRAND FORKS AF SUNNY     66  28  24 N22G31    29.91R
GRAND CITY NWS NOT AVBL
BUXTON           N/A     67  31  26 N21G39      N/A
DEVILS LAKE    SUNNY     67  24  19 N25G32    29.96R
FARGO          SUNNY     70  28  21 N36G43    29.85R
WAHPETON ARPT  CLEAR     70  21  16 N18G36    29.83S
$$

 *****  WEATHER ACROSS CENTRAL AND WESTERN NORTH DAKOTA  *****

CITY           SKY/WX    TMP DP  RH WIND       PRES   REMARKS
JAMESTOWN      SUNNY     70  27  20 N24G33    29.92S
BISMARCK       SUNNY     75  36  24 N17G30    29.97S
MINOT          SUNNY     79  31  17 NW18G26   30.00S
MINOT AFB      SUNNY     74  34  22 N20       29.99F
GARRISON         N/A     75  35  23 N20       30.00S
WILLISTON      SUNNY     82  38  20 N14G26    30.03S
DICKINSON      SUNNY     75  34  22 NW17G25   30.03S
HETTINGER      SUNNY     77  35  21 N10G21    30.05S
$$

 *****  OTHER OBSERVATIONS NORTHEAST NORTH DAKOTA  *****

CITY           SKY/WX    TMP DP  RH WIND       PRES   REMARKS
WALHALLA       FAIR      63  30  29 N24G33    29.97S
LANGDON        FAIR      63  25  23 N24G32    29.97S
CAVALIER       FAIR      63  32  31 N23G30    29.94S
GRAFTON        FAIR      64  32  29 N22G38    29.93S
CANDO          FAIR      66  23  19 N25G35    30.00R
FORT TOTTEN      N/A     66  27  23 N9        29.95S
ROLLA          FAIR      66  25  20 NE24G32   30.00S
RUGBY          FAIR      70  25  18 N22G28    29.98S
 ***** THE ABOVE OBSERVATIONS ARE NON NWS ARE NOT QUALITY
        CONTROLLED AND MAY MIS-REPORT RAIN FOR SNOW...
$$

 *****  OTHER OBSERVATIONS SOUTHEAST NORTH DAKOTA *****

CITY           SKY/WX    TMP DP  RH WIND       PRES   REMARKS
COOPERSTOWN    NOT AVBL
VALLEY CITY    FAIR      68  28  22 N25G33    29.92S
OAKES            N/A    N/A N/A N/A MISG        N/A
GWINNER        FAIR      72  27  18 N25G31    29.88R
SHEYENNE NWR     N/A     71  25  18 N15       29.95S
BUFFALO          N/A     67  24  19 N21G36      N/A
WYNDMERE         N/A     72  25  17 N25         N/A
 ***** THE ABOVE OBSERVATIONS ARE NON NWS ARE NOT QUALITY
       CONTROLLED AND MAY MIS-REPORT RAIN FOR SNOW...
$$

  *****  WEATHER ACROSS NORTHERN MINNESOTA  *****

CITY           SKY/WX    TMP DP  RH WIND       PRES   REMARKS
FLAG ISLAND    MOSUNNY   55  36  47 N16       29.86R
WARROAD        MOSUNNY   63  34  34 N17G23    29.87R
ROSEAU         SUNNY     64  30  27 N17G25    29.87R
HALLOCK        SUNNY     64  25  22 N26       29.90S
THF RVR FALLS  SUNNY     63  27  25 N23G29    29.88S
HALSTAD        NOT AVBL
FOSSTON        SUNNY     66  25  20 N23       29.85S
BAUDETTE       SUNNY     62  31  31 N21G30    29.84R
WASKISH        SUNNY     63  32  31 N15G21    29.83R
CROOKSTON      SUNNY     66  27  22 N26G35    29.88S
$$
  *****  WEATHER ACROSS CENTRAL AND WEST MINNESOTA  *****

CITY           SKY/WX    TMP DP  RH WIND       PRES   REMARKS
BEMIDJI        SUNNY     64  26  24 N15G25    29.80S
PARK RAPIDS    SUNNY     67  21  17 N22G31    29.77R
WADENA         SUNNY     66  28  24 NW24G32   29.76S
DETROIT LAKES  SUNNY     64  27  24 N30       29.83S
MOORHEAD       SUNNY     70  27  19 N26G43    29.85S
FERGUS FALLS   SUNNY     70  30  23 N25G41    29.78S
ELBOW LAKE     FAIR      67  29  24 NW28G37   29.80R
MORRIS MN      SUNNY     73  27  17 N32G41    29.78R
STAPLES        SUNNY     70  21  16 N22G29    29.75R
WHEATON        SUNNY     72  30  21 NW26G38   29.83S
$$
  *****  WEATHER ELSEWHERE ACROSS MINNESOTA  *****

CITY           SKY/WX    TMP DP  RH WIND       PRES   REMARKS
DULUTH         MOSUNNY   67  30  25 N20G29    29.66F
INTRNTL FALLS  PTSUNNY   62  30  29 N18G28    29.78R
ELY            SUNNY     63  25  23 N13G25    29.70R
CLOQUET        MOSUNNY   68  21  17 NW20      29.68R
BRAINERD       SUNNY     68  29  23 N21G28    29.72R
HIBBING        MOSUNNY   63  28  26 MISG      29.70R
ALEXANDRIA     SUNNY     71  28  20 N22G38    29.77R
SAINT CLOUD    PTSUNNY   70  39  32 NW18G26   29.70F
MINNEAPOLIS    PTSUNNY   71  39  31 W18G25    29.71F
$$

  *****  WEATHER ACROSS SOUTH DAKOTA  *****

CITY           SKY/WX    TMP DP  RH WIND       PRES   REMARKS
SIOUX FALLS    PTSUNNY   70  41  34 NW18G30   29.88F
BROOKINGS      MOSUNNY   71  42  35 NW16G24   29.84F
WATERTOWN      MOSUNNY   76  37  24 NW28G37   29.82F
HURON          SUNNY     75  42  30 NW18G28   29.87F
SISSETON         N/A     74  25  16 N30G39    29.82R
ABERDEEN       SUNNY     77  40  26 N29G37    29.87S
MITCHELL       MOSUNNY   72  47  40 NW20G26   29.91F
PIERRE         SUNNY     75  39  27 NW22      29.95F
MOBRIDGE       SUNNY     79  41  25 N18G30    29.92F
RAPID CITY     SUNNY     72  39  30 N17G26    30.08S
$$

  *****  SOME WEATHER IN NEARBY STATES *****

CITY           SKY/WX    TMP DP  RH WIND       PRES   REMARKS
GLASGOW MT     SUNNY     80  37  21 NE9       30.06F
GREAT FALLS MT SUNNY     76  28  17 CALM      30.08F
CHEYENNE WY    MOSUNNY   60  32  34 NW16      30.24R
SCOTTSBLUFF NE SUNNY     72  33  24 N16G23    30.12S
OMAHA NE       PTSUNNY   71  41  33 W15G24    29.95F
DES MOINES IA  CLOUDY    69  39  33 W18G26    29.91F
DAVENPORT IA   MOSUNNY   68  40  35 W18G28    29.87F
CHICAGO IL     PTSUNNY   64  38  38 W15       29.82F
EAU CLAIRE WI  CLOUDY    67  35  30 W20G29    29.68F
LA CROSSE WI   MOSUNNY   70  36  28 W20G28    29.74F
$$

  *****  SOME NATIONAL WEATHER *****

CITY           SKY/WX    TMP DP  RH WIND       PRES   REMARKS
LA GUARDIA NY  CLOUDY    54  52  94 NE9       29.81R
RALEIGH NC     TSTM      70  64  83 SW10      29.74R FOG
ATLANTA GA     PTSUNNY   76  57  51 W16G22    29.84F
NEW ORLEANS LA CLOUDY    75  66  73 NW13      29.91F
OKLAHOMA CITY  PTSUNNY   68  42  38 S5        30.04F
ALBUQUERQUE NM MOSUNNY   72  23  16 NE5       30.17F
SALT LAKE CITY MOSUNNY   73  30  20 NW9       30.19F
LOS ANGELES CA PTSUNNY   66  55  67 SW17      29.96R
BOISE ID       SUNNY     79  29  16 SE8       30.09F
SEATTLE WA     PTSUNNY   69  53  56 VRB6      30.05S
$$

*** WEATHER ACROSS MANITOBA...SASKATCHEWAN AND ONTARIO ***
                ***ONTARIO***

CITY           SKY/WX    TMP DP  RH WIND       PRES   REMARKS
GERALDTON      CLOUDY    45  37  76 NW14G20   29.63R
THUNDER BAY    PTSUNNY   61  30  31 N21G29    29.63R
SIOUX LOOKOUT  PTSUNNY   52  34  50 N14G25    29.84R
TORONTO        PTSUNNY   52  39  62 S6        29.81F
BIG TROUT LK   CLOUDY    39  28  65 N16G31    29.87R
PICKLE LAKE    PTSUNNY   43  34  70 VRB7      29.81R
DRYDEN         PTSUNNY   54  34  47 N12G26    29.84R
KENORA         MOSUNNY   57  34  41 N16G29    29.87R
$$
                *** MANITOBA***

CITY           SKY/WX    TMP DP  RH WIND       PRES   REMARKS
BRANDON        SUNNY     66  27  22 N17G29    30.02S
DAUPHIN        SUNNY     61  28  29 NE17G25   30.06R
ISLAND LAKE    MOSUNNY   45  30  57 NW12G20   30.03R
PILOT MOUND      N/A     63  27  25 N21G32      N/A
THE PAS        MOSUNNY   59  27  29 N6        30.07F
THOMPSON       SUNNY     54  21  28 NE12      30.06S
WINNIPEG       MOSUNNY   61  36  39 N22G32    29.97R
LYNN LAKE      SUNNY     55  27  33 E5        30.07F
CHURCHILL      PTSUNNY   27  19  74 N13G18    30.19R WCI  16
GILLAM         MOSUNNY   41  21  45 N13       30.10S
$$
                ***SASKATCHEWAN***

CITY           SKY/WX    TMP DP  RH WIND       PRES   REMARKS
ESTEVAN        MOSUNNY   79  37  22 N16G23    30.04R
KINDERSLEY     MOSUNNY   82  34  17 S13G20    30.00F
LLOYDMINSTER   MOSUNNY   82  37  20 SW14G21   29.95F
PRINCE ALBERT  CLOUDY    75  37  25 SE10      30.00F
REGINA         MOSUNNY   79  37  22 VRB10     30.03F
YORKTON        SUNNY     70  30  23 N15       30.05F   C1F1C2F2C3F3C4F4C5F5C6F6C7F7C8F8C9F9CaFaCbFbCcFcCdFdCe!



USA.gov is the U.S. government's official web portal to all federal, state and local government web resources and services.